Le nostre stazioni meteo in Italia

Pubblicità
Il mio iltempo24.it
Dunstaffnage, Gran Bretagna (99006): Temperatura & dewpoint: 14.08.2017 05:00:00 - 20.08.2017 05:00:00 (BST)Dunstaffnage, Gran Bretagna (99006): Temperatura -20cm: 14.08.2017 05:00:00 - 20.08.2017 05:00:00 (BST)Dunstaffnage, Gran Bretagna (99006): velocità del vento & gusts: 14.08.2017 05:00:00 - 20.08.2017 05:00:00 (BST)Dunstaffnage, Gran Bretagna (99006): direzione del vento: 14.08.2017 05:00:00 - 20.08.2017 05:00:00 (BST)Dunstaffnage, Gran Bretagna (99006): visibility: 14.08.2017 05:00:00 - 20.08.2017 05:00:00 (BST)Dunstaffnage, Gran Bretagna (99006): precipitazioni: 14.08.2017 05:00:00 - 20.08.2017 05:00:00 (BST)
Data & Tempo tt [°C] td [°C] tt -20cm [°C] ff [km/h] ff [kn] fx [km/h] fx [kn] dd vv [km] rr [mm]
20.08.2017 05:00:00 - - - - - - - - - 0,0
20.08.2017 04:00:00 13,1 11,8 - 16 9 - - O - 0,0
20.08.2017 03:00:00 12,9 11,4 - 16 9 - - O - 0,0
20.08.2017 02:00:00 12,7 11,6 - 16 9 - - O - 0,0
20.08.2017 01:00:00 12,8 12,0 - 13 7 - - O - 0,0
20.08.2017 00:00:00 12,5 11,3 - 16 9 - - O - 0,0
19.08.2017 23:00:00 12,7 11,5 - 18 10 - - O - 0,0
19.08.2017 22:00:00 13,2 12,2 - 26 14 - - O - 0,6
19.08.2017 21:00:00 14,0 11,9 - 18 10 - - O - 0,0
19.08.2017 20:00:00 14,7 11,9 - 22 12 - - O - 0,0
19.08.2017 19:00:00 16,1 12,1 - 24 13 - - O - 0,0
19.08.2017 18:00:00 15,8 13,6 - 31 17 48 26 O - 0,0
19.08.2017 17:00:00 17,1 13,3 - 34 18 - - O - 0,0
19.08.2017 16:00:00 15,1 12,9 - 28 15 50 27 O - 0,0
19.08.2017 15:00:00 15,4 13,0 - 35 19 54 29 O - 0,0
19.08.2017 14:00:00 14,9 12,8 - 35 19 54 29 O - 0,4
19.08.2017 13:00:00 14,8 13,4 - 29 16 48 26 O - 0,4
19.08.2017 12:00:00 13,6 12,4 - 26 14 54 29 O - 0,8
19.08.2017 11:00:00 15,3 13,1 - 26 14 48 26 O - 0,2
19.08.2017 10:00:00 13,5 11,9 14,7 31 17 - - O - 0,4
19.08.2017 09:00:00 13,1 11,0 - 22 12 - - OSO - 0,0
19.08.2017 08:00:00 12,5 11,0 - 16 9 - - OSO - 0,2
19.08.2017 07:00:00 11,7 9,6 - 18 10 - - O - 0,0
19.08.2017 06:00:00 11,6 9,0 - 15 8 - - OSO - 0,0
19.08.2017 05:00:00 11,5 8,7 - 22 12 - - O - 0,0
19.08.2017 04:00:00 12,1 9,1 - 24 13 - - O - 0,0
19.08.2017 03:00:00 11,9 9,9 - 16 9 - - O - 0,0
19.08.2017 02:00:00 12,0 9,8 - 22 12 - - O - 0,0
19.08.2017 01:00:00 12,7 10,2 - 24 13 - - O - 0,0
19.08.2017 00:00:00 12,4 10,3 - 28 15 - - O - 0,4
18.08.2017 23:00:00 12,9 11,0 - 24 13 - - O - 0,0
18.08.2017 22:00:00 13,1 11,4 - 31 17 48 26 O - 0,0
18.08.2017 21:00:00 13,2 11,8 - 16 9 - - O - 0,2
18.08.2017 20:00:00 13,3 12,7 - 11 6 - - SO - 1,6
18.08.2017 19:00:00 13,0 12,4 - 15 8 - - SO - 1,8
18.08.2017 18:00:00 14,2 11,7 - 15 8 - - SO - 0,0
18.08.2017 17:00:00 14,5 11,1 - 22 12 - - OSO - 0,0
18.08.2017 16:00:00 15,4 12,2 - 22 12 - - OSO - 0,0
18.08.2017 15:00:00 13,6 12,9 - 18 10 - - OSO - 2,0
18.08.2017 14:00:00 12,4 11,4 - 15 8 - - O - 3,0
18.08.2017 13:00:00 12,5 11,8 - 16 9 - - OSO - 3,4
18.08.2017 12:00:00 13,0 11,6 - 18 10 - - OSO - 1,4
18.08.2017 11:00:00 14,1 12,3 - 21 11 - - OSO - 0,2
18.08.2017 10:00:00 12,8 11,9 15,0 5 3 - - SSO - 0,2
18.08.2017 09:00:00 11,3 10,6 - 4 2 - - SO - 1,0
18.08.2017 08:00:00 11,4 9,4 - 9 5 - - ONO - 1,2
18.08.2017 07:00:00 11,5 10,7 - 18 10 - - O - 1,2
18.08.2017 06:00:00 11,5 10,5 - 13 7 - - OSO - 0,8
18.08.2017 05:00:00 11,8 9,9 - 28 15 - - O - 0,2
18.08.2017 04:00:00 13,3 12,3 - 13 7 - - SSO - 1,4
18.08.2017 03:00:00 14,2 12,5 - 8 4 - - SE - 0,0
18.08.2017 02:00:00 14,5 12,2 - 8 4 - - SSE - 0,0
18.08.2017 01:00:00 14,6 12,7 - 9 5 - - SSE - 0,0
18.08.2017 00:00:00 14,4 13,0 - 9 5 - - ESE - 0,4
17.08.2017 23:00:00 14,8 12,2 - 13 7 - - ESE - 0,0
17.08.2017 22:00:00 14,6 12,6 - 8 4 - - ESE - 0,0
17.08.2017 21:00:00 14,4 13,0 - 5 3 - - ESE - 0,0
17.08.2017 20:00:00 15,8 12,1 - 4 2 - - OSO - 0,0
17.08.2017 19:00:00 17,0 13,1 - 11 6 - - OSO - 0,0
17.08.2017 18:00:00 15,7 12,8 - 11 6 - - SSO - 0,0
17.08.2017 17:00:00 15,8 13,9 - 13 7 - - SO - 0,0
17.08.2017 16:00:00 16,4 14,2 - 15 8 - - SO - 0,4
17.08.2017 15:00:00 14,8 13,8 - 9 5 - - SSO - 2,0
17.08.2017 14:00:00 14,9 13,6 - 16 9 - - S - 0,8
17.08.2017 13:00:00 14,8 13,2 - 18 10 - - S - 0,8
17.08.2017 12:00:00 14,7 12,7 - 21 11 - - S - 0,2
17.08.2017 11:00:00 14,5 12,6 - 21 11 - - S - 0,0
17.08.2017 10:00:00 14,7 11,8 15,0 16 9 - - S 10 0,0
17.08.2017 09:00:00 14,0 11,8 - 15 8 - - SSE - 0,0
17.08.2017 08:00:00 13,6 11,7 - 9 5 - - SSE - 0,0
17.08.2017 07:00:00 13,1 11,4 - 13 7 - - SSE - 0,0
17.08.2017 06:00:00 13,1 11,1 - 13 7 - - SSE - 0,0
17.08.2017 05:00:00 13,4 11,2 - 13 7 - - S - 0,0
17.08.2017 04:00:00 14,2 11,4 - 18 10 - - S - 0,0
17.08.2017 03:00:00 13,6 12,3 - 9 5 - - S - 0,0
17.08.2017 02:00:00 13,8 12,5 - 5 3 - - SSO - 0,0
17.08.2017 01:00:00 13,9 12,7 - 9 5 - - SSE - 0,0
17.08.2017 00:00:00 14,2 13,3 - 5 3 - - SO - 0,2
16.08.2017 23:00:00 14,6 14,1 - 9 5 - - SSO - 3,6
16.08.2017 22:00:00 15,2 14,2 - 16 9 - - OSO - 2,8
16.08.2017 21:00:00 16,0 14,6 - 18 10 - - SSE - 0,0
16.08.2017 20:00:00 15,8 14,5 - 15 8 - - SSE - 0,0
16.08.2017 19:00:00 16,1 14,6 - 18 10 - - S - 0,6
16.08.2017 18:00:00 15,4 14,3 - 18 10 - - S - 2,8
16.08.2017 17:00:00 15,1 14,0 - 22 12 - - S - 1,0
16.08.2017 16:00:00 15,0 13,4 - 9 5 - - SSE - 0,0
16.08.2017 15:00:00 14,6 13,1 - 11 6 - - SSE - 0,0
16.08.2017 14:00:00 14,5 12,6 - 13 7 - - SSE - 0,2
16.08.2017 13:00:00 14,3 12,9 - 11 6 - - SE - 0,8
16.08.2017 12:00:00 14,7 12,3 - 11 6 - - S - 0,2
16.08.2017 11:00:00 14,7 12,2 - 13 7 - - S - 0,4
16.08.2017 10:00:00 15,5 11,7 15,0 11 6 - - SE 20 0,0
16.08.2017 09:00:00 15,0 11,0 - 16 9 - - ESE - 0,0
16.08.2017 08:00:00 14,1 10,8 - 9 5 - - ESE - 0,0
16.08.2017 07:00:00 13,0 10,3 - 11 6 - - ESE - 0,0
16.08.2017 06:00:00 12,5 10,1 - 13 7 - - ESE - 0,0
16.08.2017 05:00:00 12,5 10,4 - 11 6 - - ESE - 0,0
16.08.2017 04:00:00 12,5 10,5 - 13 7 - - SE - 0,0
16.08.2017 03:00:00 12,4 10,3 - 13 7 - - SSE - 0,0
16.08.2017 02:00:00 12,8 10,6 - 13 7 - - S - 0,0
16.08.2017 01:00:00 12,8 11,2 - 8 4 - - SSO - 0,0
16.08.2017 00:00:00 12,9 11,3 - 4 2 - - SO - 0,0
15.08.2017 23:00:00 13,3 11,5 - 9 5 - - SSO - 0,0
15.08.2017 22:00:00 13,0 11,6 - 13 7 - - OSO - 0,0
15.08.2017 21:00:00 13,4 11,6 - 13 7 - - OSO - 0,0
15.08.2017 20:00:00 14,3 11,7 - 15 8 - - OSO - 0,0
15.08.2017 19:00:00 15,6 11,2 - 22 12 - - OSO - 0,0
15.08.2017 18:00:00 15,3 11,0 - 21 11 - - OSO - 0,0
15.08.2017 17:00:00 15,6 11,5 - 21 11 - - OSO - 0,0
15.08.2017 16:00:00 15,4 12,3 - 21 11 - - OSO - 0,0
15.08.2017 15:00:00 17,6 13,8 - 21 11 - - OSO - 0,2
15.08.2017 14:00:00 15,7 11,8 - 21 11 - - OSO - 0,0
15.08.2017 13:00:00 15,3 14,0 - 13 7 - - OSO - 0,6
15.08.2017 12:00:00 13,6 11,3 - 24 13 - - OSO - 0,6
15.08.2017 11:00:00 16,1 13,1 - 16 9 - - SO - 0,0
15.08.2017 10:00:00 14,6 12,8 15,0 15 8 - - SO 10 0,0
15.08.2017 09:00:00 13,7 11,9 - 13 7 - - OSO - 0,0
15.08.2017 08:00:00 13,1 12,0 - 5 3 - - SO - 0,2
15.08.2017 07:00:00 12,2 11,2 - 8 4 - - SO - 0,2
15.08.2017 06:00:00 11,8 11,3 - 4 2 - - SO - 0,0
15.08.2017 05:00:00 11,5 10,9 - 5 3 - - SSO - 0,0
15.08.2017 04:00:00 11,6 11,0 - 9 5 - - SSO - 0,0
15.08.2017 03:00:00 11,9 11,3 - 5 3 - - SSO - 0,0
15.08.2017 02:00:00 12,3 11,4 - 5 3 - - SSO - 0,0
15.08.2017 01:00:00 12,9 11,8 - 8 4 - - SSO - 0,0
15.08.2017 00:00:00 12,9 12,0 - 5 3 - - SSO - 0,0
14.08.2017 23:00:00 13,2 12,0 - 5 3 - - SO - 0,0
14.08.2017 22:00:00 13,7 12,5 - 5 3 - - SO 10 0,0
14.08.2017 21:00:00 14,2 12,8 - 11 6 - - SO - 0,0
14.08.2017 20:00:00 14,7 13,0 - 13 7 - - OSO - 0,0
14.08.2017 19:00:00 15,2 13,1 - 13 7 - - SO - 0,0
14.08.2017 18:00:00 15,6 13,8 - 16 9 - - SO - 0,0
14.08.2017 17:00:00 18,4 14,6 - 15 8 - - S - 0,0
14.08.2017 16:00:00 17,4 14,9 - 13 7 - - SSO - 0,0
14.08.2017 15:00:00 17,2 15,0 - 13 7 - - S - 0,0
14.08.2017 14:00:00 16,3 14,7 - 15 8 - - S - 0,2
14.08.2017 13:00:00 14,5 13,8 - 9 5 - - E - 0,4
14.08.2017 12:00:00 13,7 13,3 - 16 9 - - E - 4,2
14.08.2017 11:00:00 13,0 12,4 - 18 10 - - E - 3,0
14.08.2017 10:00:00 12,9 11,8 15,2 22 12 - - E 0,7 1,4
14.08.2017 09:00:00 12,0 11,2 - 18 10 - - E - 2,6
14.08.2017 08:00:00 11,8 10,8 - 18 10 - - E - 1,2
14.08.2017 07:00:00 11,6 10,7 - 15 8 - - E - 1,2
14.08.2017 06:00:00 11,6 10,1 - 11 6 - - ESE - 0,8
14.08.2017 05:00:00 12,4 9,4 - 15 8 - - E - 0,0

tt = Temperatura
td = dewpoint
tt -20cm = Temperatura -20cm
ff = velocità del vento
fx = gusts
dd = direzione del vento
vv = visibility
rr = precipitazioni

Stazioni seguenti

WeatherPro
AMSI
MeteoEarth